This is the latest recevied weather packets stored in our database for station/object KI8L. If no packets are shown the sender has not sent any weather packets the latest 10 day(s).
| Time | Temp. | Humidity | Pressure | Rain* | Wind** | Luminosity | Snow |
|---|---|---|---|---|---|---|---|
| 1778015163 | 14.44° C | 99% | 1010 hPa | 0 mm | - | 43 W/m² | - |
| 1778014860 | 14.44° C | 99% | 1010 hPa | 0 mm | - | 25 W/m² | - |
| 1778014558 | 14.44° C | 99% | 1010 hPa | 0 mm | - | 22 W/m² | - |
| 1778014255 | 14.44° C | 99% | 1010 hPa | 0 mm | - | 29 W/m² | - |
| 1778013953 | 14.44° C | 99% | 1010 hPa | 0 mm | - | 27 W/m² | - |
| 1778013650 | 14.44° C | 98% | 1010 hPa | 0 mm | - | 50 W/m² | - |
| 1778013346 | 15° C | 98% | 1010.1 hPa | 3.05 mm | - | 38 W/m² | - |
| 1778013044 | 14.44° C | 98% | 1010.2 hPa | 6.1 mm | - | 43 W/m² | - |
| 1778012739 | 15° C | 98% | 1010.1 hPa | 3.05 mm | - | 68 W/m² | - |
| 1778012435 | 15° C | 98% | 1010.4 hPa | 0 mm | - | 20 W/m² | - |
| 1778012133 | 15° C | 97% | 1010.1 hPa | 0 mm | - | 23 W/m² | - |
| 1778011830 | 15° C | 97% | 1010.3 hPa | 0 mm | - | 47 W/m² | - |
| 1778011528 | 15° C | 97% | 1010.1 hPa | 0 mm | - | 51 W/m² | - |
| 1778011224 | 15° C | 96% | 1010.2 hPa | 3.05 mm | - | 44 W/m² | - |
| 1778010920 | 15° C | 96% | 1010.3 hPa | 7.87 mm | - | 54 W/m² | - |
| 1778010618 | 15.56° C | 93% | 1010.1 hPa | 7.87 mm | - | 47 W/m² | - |
| 1778010315 | 16.11° C | 89% | 1010.2 hPa | 1.27 mm | - | 52 W/m² | - |
| 1778010010 | 16.11° C | 87% | 1010.5 hPa | 0 mm | - | 33 W/m² | - |
| 1778009708 | 16.11° C | 87% | 1010.3 hPa | 0 mm | - | 28 W/m² | - |
| 1778009405 | 16.67° C | 86% | 1010.3 hPa | 0 mm | - | 44 W/m² | - |
| 1778009104 | 16.67° C | 86% | 1010.3 hPa | 0 mm | - | 66 W/m² | - |
| 1778008801 | 16.67° C | 86% | 1010.2 hPa | 0 mm | - | 73 W/m² | - |
| 1778008499 | 17.22° C | 85% | 1010.3 hPa | 0 mm | - | 121 W/m² | - |
| 1778008196 | 17.22° C | 84% | 1010.1 hPa | 0 mm | - | 115 W/m² | - |
| 1778007891 | 17.22° C | 83% | 1010.2 hPa | 0 mm | - | 106 W/m² | - |
* Rain latest hour (hover to see other rain measurements)
** Current wind speed in m/s (hover to see current wind gust speed)